Starlink 5830

operational
NORAD ID: 57065 Int'l Des: 2023-088 Owner: SPXS Country: US Constellation: starlink
LEOCIRCULAR

About Starlink 5830

Description loading...

Live Position

Loading 3D Globe...

Upcoming Passes

Altitude History

Altitude vs Time

uPlot chart will show altitude changes over time

Two-Line Element Set

1 57065U 23088T 25352.90964335 -.00000389 00000-0 -13751-4 0 9993
2 57065 43.0027 186.7916 0000617 249.9563 110.1213 15.02542801137234
Epoch: Dec 18, 2025 • Age: 7 hours

Current Status

Altitude 561.8 km
Velocity 7.58 km/s
Sub-Earth Point -15.54°S, 142.35°W
Launch Date Jun 22, 2023
Age 2.4 years
Type internet

Technical Details

Classification Payload
Mass 305.00 kg
Dry Mass 290.00 kg
Total Mass 305.00 kg
Length 0.20 m
Diameter 2.80 m
Span 9.00 m
Shape Box + pan
Manufacturer SPXS
Bus Type Starlink
Phase Status In Orbit
Owner/State SPXS/US

Large Constellations

Loading constellations...